Flag for Austria Weather past 2 weeks in Graz, Styria, Austria

Now
30 °F

Passing clouds.


Feels Like: 23 °F
Forecast: 22 / 32 °F
Wind: 7 mph from North

Location: Graz-Thalerhof-Flughafen

Current Time: Dec 26, 2014 at 5:37:50 PM

Latest Report: Dec 26, 2014 at 4:50 PM


Visibility: N/A

Pressure: 30.18 "Hg

Humidity: 64%

Dew point: 19 °F

Location of GrazLocation

Historic Weather in Graz — Graph

°F

Graz temperature yesterday

Maximum temperature yesterday: 46 °F (at 2:20 PM)
Minimum temperature yesterday: 23 °F (at 1:20 AM)
Average temperature yesterday: 34 °F

Past Weeks' High & Low Weather Summary

 TemperatureHumidityPressure
High55 °F (Dec 19, 1:50 PM)100% (Dec 11, 9:50 PM)30.42 "Hg (Dec 11, 9:50 PM)
Low21 °F (Dec 24, 5:50 AM)35% (Dec 21, 1:50 PM)29.86 "Hg (Dec 16, 2:20 PM)
Average35 °F90%30.07 "Hg
* Reported Dec 11 4:20 PM — Dec 26 4:20 PM, Graz, Weather by CustomWeather, © 2014

Note: Actual official high and low records may vary slightly from our data, if they occured in-between our weather recording intervals... More about our weather records

Advertising

Graz weather history for previous 24 hours

 ConditionsComfort  
Time TempWeatherWind HumidityBarometerVisibility
4:20 PM
Dec 26
36 °FPassing clouds.9 mph52%30.18 "HgN/A
3:50 PM39 °FPassing clouds.12 mph45%30.18 "HgN/A
3:20 PM41 °FPassing clouds.8 mph49%30.18 "HgN/A
2:50 PM39 °FPassing clouds.10 mph52%30.18 "HgN/A
2:20 PM41 °FPassing clouds.12 mph49%30.18 "HgN/A
1:50 PM41 °FScattered clouds.12 mph45%30.18 "HgN/A
1:20 PM39 °FScattered clouds.16 mph52%30.18 "HgN/A
12:50 PM41 °FScattered clouds.2 mph66%30.18 "HgN/A
12:20 PM39 °FScattered clouds.5 mph81%30.18 "HgN/A
11:50 AM34 °FPassing clouds.2 mph93%30.18 "HgN/A
11:20 AM30 °FSnow. Cloudy.3 mph100%30.21 "Hg1 mi
10:50 AM32 °FSnow. Ice fog.5 mph100%30.21 "HgN/A
10:20 AM32 °FMixture of precip. Passing clouds.3 mph93%30.21 "HgN/A
9:50 AM28 °FLight fog.3 mph100%30.21 "Hg1 mi
9:20 AM27 °FScattered clouds.3 mph100%30.21 "Hg1 mi
8:50 AM27 °FScattered clouds.1 mph100%30.21 "Hg1 mi
8:20 AM27 °FScattered clouds.3 mph100%30.21 "Hg1 mi
7:50 AM25 °FIce fog.2 mph100%30.21 "Hg0 mi
7:20 AM27 °FPassing clouds.2 mph100%30.18 "Hg0 mi
6:50 AM25 °FLight fog.2 mph100%30.15 "Hg1 mi
6:20 AM25 °FSnow. Overcast.1 mph100%30.15 "Hg2 mi
5:50 AM27 °FSnow. Overcast.3 mph100%30.15 "Hg4 mi
5:20 AM25 °FCold.2 mph100%30.15 "Hg4 mi
4:50 AM28 °FSnow. Overcast.1 mph100%30.15 "Hg4 mi
3:20 AM30 °FLight freezing rain. Overcast.2 mph100%30.15 "Hg3 mi
2:50 AM30 °FPassing clouds.5 mph93%30.15 "HgN/A
2:20 AM30 °FClear.2 mph100%30.15 "Hg10 mi
1:50 AM34 °FClear.6 mph93%30.15 "Hg10 mi
1:20 AM32 °FPassing clouds.3 mph87%30.15 "HgN/A
12:50 AM34 °FChilly.2 mph81%30.15 "HgN/A
12:20 AM36 °FClear.3 mph75%30.15 "Hg10 mi
11:50 PM
Dec 25
36 °FClear.2 mph87%30.15 "Hg10 mi
11:20 PM36 °FClear.1 mph93%30.15 "Hg10 mi
10:50 PM37 °FPassing clouds.1 mph87%30.15 "HgN/A
10:20 PM36 °FPassing clouds.2 mph93%30.15 "HgN/A
9:50 PM37 °FPassing clouds.3 mph87%30.15 "HgN/A
9:20 PM37 °FPartly cloudy.2 mph87%30.15 "HgN/A
8:50 PM37 °FPassing clouds.1 mph87%30.15 "HgN/A
8:20 PM37 °FPassing clouds.1 mph87%30.15 "HgN/A
7:50 PM39 °FPassing clouds.3 mph81%30.15 "HgN/A
7:20 PM41 °FPartly cloudy.2 mph76%30.15 "HgN/A
6:50 PM41 °FPartly cloudy.3 mph76%30.15 "HgN/A
6:20 PM41 °FSprinkles. Partly cloudy.1 mph76%30.15 "HgN/A
5:50 PM41 °FPassing clouds.3 mph70%30.12 "HgN/A
5:20 PM41 °FPartly cloudy.2 mph70%30.12 "HgN/A
Weather by CustomWeather, © 2014

See weather overviewHow to use our weather pages